[[{"header":{"parameterUnit":"m.s-1","parameterCategory":1,"la1":30.2991,"la2":30.254,"lo1":-89.0895,"lo2":-89.0444,"dy":0.0017,"dx":0.0017,"nx":28,"ny":28,"refTime":"2024-05-26T09:00:00:Z","depth":0,"parameterNumber":2,"parameterNumberName":"U-component_of_WINDS"},"data":[0,0,0,0,0,0,0,0,0,0,0,0,0,0,0,0,0,0,0,0,0,0,0,0,0,0,0,0,0,0,0,0,0,0,0,0,0,0,0,0,0,0,0,0,0,0,0,0,0,0,0,0,0,0,0,0,0,0,2.6294,2.6295,0,2.6384,2.6385,2.6386,2.6349,2.6347,2.6345,2.6343,2.6437,2.6441,2.6446,0,0,0,0,0,0,0,0,0,0,0,0,0,2.6093,2.6097,2.6294,2.6295,2.6296,2.6383,2.6385,2.6386,2.6349,2.6347,2.6344,2.6342,2.6436,2.6441,2.6446,0,0,0,0,0,0,0,0,0,0,0,0,0,2.6181,2.6098,2.6294,2.6288,2.6289,2.6383,2.6385,2.6386,2.635,2.6347,2.6344,2.6341,2.6434,2.644,2.6447,2.6553,0,0,2.6468,2.6471,0,0,0,0,0,0,0,0,2.6176,2.6189,2.6288,2.6289,2.629,2.6352,2.6348,2.6442,2.6351,2.6327,2.6343,2.6339,2.6411,2.642,2.6444,2.6557,2.6561,2.6468,2.6472,2.6475,2.6477,0,0,0,0,0,0,0,2.617,2.6185,2.6329,2.629,2.6291,2.6282,2.6291,2.6366,2.6386,2.6329,2.6326,2.6337,2.6411,2.6437,2.6446,2.6562,2.6468,2.6474,2.6478,2.6481,2.6765,2.6769,0,0,0,0,0,0,2.6164,2.618,2.6327,2.6332,2.6224,2.6288,2.6298,2.6335,2.6385,2.639,2.634,2.6335,2.6427,2.6438,2.6449,2.6574,2.6475,2.6482,2.6485,2.6762,2.6766,2.677,0,0,0,0,0,0,2.6159,2.6177,2.6323,2.6255,2.6273,2.6295,2.6337,2.6339,2.6364,2.6393,2.6397,2.6363,2.6425,2.6439,2.6526,2.6577,2.6485,2.6491,2.6758,2.6763,2.6768,2.6827,0,0,0,0,0,0,2.6154,2.6176,2.6216,2.6256,2.6277,2.6399,2.634,2.6343,2.6376,2.6371,2.6416,2.642,2.6424,2.6517,2.6533,2.6585,2.6496,2.6753,2.676,2.6766,2.6821,2.6834,2.6845,0,0,0,0,0,2.6147,2.623,2.6218,2.6236,2.6327,2.6402,2.6414,2.6415,2.638,2.6421,2.6439,2.6419,2.6569,2.6526,2.6544,2.6599,2.675,2.6758,2.6766,2.6815,2.6831,2.6844,0,0,0,0,0,0,2.6196,2.6235,2.6222,2.6321,2.6358,2.6395,2.6447,2.6432,2.6481,2.6474,2.6475,2.6485,2.6575,2.6596,2.6547,2.6703,2.6654,2.6666,2.6686,2.6701,2.6713,2.6706,2.6502,0,0,0,0,0,2.6218,2.6274,2.6306,2.639,2.6409,2.6425,2.6457,2.6455,2.6494,2.651,2.6535,2.6574,2.663,2.6667,2.672,2.6824,2.6832,2.687,2.6882,2.6892,2.6902,2.6957,2.6974,2.6796,2.6796,2.6795,0,0,2.6264,2.6293,2.6329,2.64,2.6429,2.6488,2.6438,2.6503,2.6547,2.652,2.6603,2.6623,2.6667,2.6762,2.6805,2.6782,2.6953,2.6902,2.691,2.6914,2.6967,2.6984,2.6999,2.6801,2.68,2.6799,0,0,2.6379,2.6406,2.6478,2.6508,2.6551,2.6561,2.6578,2.6618,2.6629,2.6713,2.6693,2.6746,2.6842,2.6874,2.6902,2.7028,2.701,2.7045,2.7108,2.7162,2.7176,2.7188,2.7231,2.7247,2.7055,2.7056,2.7056,0,2.6431,2.6518,2.6518,2.6583,2.6615,2.6593,2.6666,2.6695,2.6754,2.6776,2.6749,2.6869,2.6897,2.6998,2.7029,2.7053,2.7073,2.704,2.7174,2.7186,2.7198,2.7239,2.7255,2.7059,2.7059,2.7058,2.7058,0,2.658,2.6641,2.6694,2.675,2.6788,2.6857,2.6867,2.6906,2.69,2.6913,2.6997,2.703,2.7089,2.7113,2.7109,2.7214,2.7198,2.7173,2.7124,2.7218,2.7257,2.7273,2.7065,2.7063,2.7062,2.7061,0,0,2.6727,2.6781,2.6801,2.6825,2.6871,2.6919,2.6987,2.7043,2.7075,2.7117,2.7174,2.7255,2.7231,2.7264,2.7263,2.7311,2.7406,2.7279,2.728,2.73,2.7522,2.754,2.7559,2.7395,2.7398,2.7401,2.7518,0,2.6844,2.6962,2.6963,2.7072,2.7128,2.7107,2.7166,2.7201,2.7214,2.7264,2.7279,2.7336,2.7301,2.732,2.7366,2.7384,2.745,2.7376,2.7447,2.745,2.7436,2.7579,2.7599,2.7708,2.7533,2.7536,2.7538,0,2.6996,2.704,2.7155,2.7191,2.7215,2.7268,2.7319,2.7366,2.7405,2.7412,2.7448,2.7439,2.7509,2.7458,2.7553,2.7503,2.7532,2.7546,2.755,2.7556,2.7499,2.7588,2.7743,2.7759,2.7562,2.756,2.7558,0,2.709,2.7179,2.7258,2.728,2.7326,2.7363,2.7384,2.742,2.7453,2.7498,2.7519,2.7573,2.7601,2.7643,2.7649,2.7612,2.7744,2.7694,2.7751,2.7751,2.7779,2.7777,2.794,2.78,2.78,2.7799,2.7799,0,2.7219,2.7289,2.7301,2.735,2.7428,2.7429,2.7506,2.7524,2.7555,2.7607,2.7594,2.7643,2.7648,2.7699,2.7705,2.7782,2.7796,2.7802,2.7803,2.7803,2.7802,2.7821,2.7813,2.7804,2.7803,2.7802,2.7801,0,2.7337,2.7348,2.7433,2.7468,2.7479,2.7535,2.7565,2.7612,2.7624,2.7689,2.7705,2.7724,2.7783,2.7793,2.7863,2.7867,2.7958,2.7952,2.7945,2.7943,2.7999,2.7993,2.8179,2.8203,2.8049,2.805,2.8051,0,2.7418,2.7471,2.7512,2.7546,2.7568,2.7622,2.7655,2.7659,2.7694,2.7742,2.7783,2.784,2.7886,2.7981,2.8001,2.8054,2.8048,2.8109,2.8056,2.8053,2.8047,2.8043,2.8048,2.8119,2.8121,2.8122,2.8123,0,2.756,2.7563,2.7611,2.7662,2.7702,2.7742,2.778,2.7808,2.7817,2.7857,2.7917,2.7952,2.8023,2.8079,2.8132,2.8153,2.814,2.814,2.8156,2.8156,2.8149,2.8152,2.7971,2.8136,2.8134,2.8134,2.8133,2.8132,2.7661,2.7707,2.7743,2.7797,2.7826,2.7862,2.7906,2.7924,2.7973,2.803,2.8029,2.8094,2.8131,2.82,2.8225,2.8275,2.8256,2.8279,2.8284,2.829,2.8294,2.8142,2.8285,2.8285,2.8285,2.8284,2.8284,0,2.7801,2.7823,2.7873,2.7926,2.7969,2.7952,2.7993,2.803,2.8087,2.8122,2.8167,2.8235,2.8289,2.8314,2.8367,2.8403,2.8398,2.8417,2.8414,2.8419,2.8309,2.829,2.842,2.842,2.842,2.842,2.842,2.842,2.7879,2.7955,2.7962,2.8052,2.8074,2.8136,2.8161,2.8194,2.8222,2.8298,2.8343,2.8358,2.8389,2.8444,2.8494,2.8499,2.8519,2.8541,2.8544,2.8441,2.8427,2.8414,2.8395,2.8545,2.8546,2.8648,2.8649,2.865]},{"header":{"parameterUnit":"m.s-1","parameterCategory":1,"la1":30.2991,"la2":30.254,"lo1":-89.0895,"lo2":-89.0444,"dy":0.0017,"dx":0.0017,"nx":28,"ny":28,"refTime":"2024-05-26T09:00:00:Z","depth":0,"parameterNumber":3,"parameterNumberName":"V-component_of_WINDS"},"data":[0,0,0,0,0,0,0,0,0,0,0,0,0,0,0,0,0,0,0,0,0,0,0,0,0,0,0,0,0,0,0,0,0,0,0,0,0,0,0,0,0,0,0,0,0,0,0,0,0,0,0,0,0,0,0,0,0,0,4.0361,4.0363,0,4.0546,4.0548,4.055,4.0566,4.0564,4.0562,4.056,4.0747,4.0754,4.0761,0,0,0,0,0,0,0,0,0,0,0,0,0,4.0016,4.0023,4.036,4.0363,4.0365,4.0546,4.0548,4.0551,4.0566,4.0564,4.0561,4.0559,4.0745,4.0753,4.0761,0,0,0,0,0,0,0,0,0,0,0,0,0,4.018,4.0025,4.036,4.0395,4.0399,4.0545,4.0548,4.0552,4.0567,4.0564,4.0561,4.0558,4.0742,4.0752,4.0763,4.0886,0,0,4.0794,4.0798,0,0,0,0,0,0,0,0,4.0171,4.0193,4.0387,4.0392,4.0398,4.053,4.0496,4.0664,4.0567,4.0503,4.056,4.0556,4.0677,4.0693,4.0734,4.0895,4.0903,4.0795,4.0801,4.0805,4.0808,0,0,0,0,0,0,0,4.0159,4.0185,4.0434,4.039,4.0397,4.04,4.042,4.0528,4.0605,4.0508,4.051,4.0532,4.068,4.0724,4.0738,4.0905,4.0795,4.0804,4.081,4.0814,4.1176,4.118,0,0,0,0,0,0,4.0142,4.0175,4.0428,4.0439,4.0275,4.0408,4.0431,4.0491,4.0603,4.0618,4.0534,4.0532,4.0708,4.0726,4.0745,4.0897,4.0805,4.0815,4.0821,4.1173,4.1177,4.1181,0,0,0,0,0,0,4.0135,4.0164,4.042,4.0308,4.0341,4.0418,4.0485,4.0496,4.054,4.0623,4.0637,4.0566,4.0706,4.0731,4.0851,4.0904,4.082,4.0829,4.1169,4.1174,4.1179,4.1202,0,0,0,0,0,0,4.0125,4.0162,4.021,4.0309,4.0347,4.0524,4.0488,4.0502,4.0558,4.0557,4.0656,4.067,4.0706,4.0836,4.0861,4.0917,4.0837,4.1164,4.1171,4.1177,4.1197,4.1208,4.1217,0,0,0,0,0,4.0112,4.0209,4.0212,4.0243,4.0409,4.0527,4.0549,4.0589,4.0562,4.0611,4.0664,4.0667,4.0894,4.0848,4.0877,4.0936,4.1161,4.1169,4.1177,4.1193,4.1206,4.1217,0,0,0,0,0,0,4.0113,4.0222,4.0228,4.0359,4.0434,4.053,4.0593,4.0601,4.0685,4.068,4.0726,4.0748,4.0867,4.0913,4.086,4.1061,4.1025,4.1038,4.1027,4.104,4.1049,4.1036,4.0846,0,0,0,0,0,4.0129,4.0216,4.0307,4.0414,4.0451,4.0515,4.0568,4.0593,4.0672,4.0703,4.0765,4.0841,4.093,4.0987,4.1073,4.1204,4.1225,4.1259,4.1268,4.1276,4.1288,4.136,4.1376,4.1206,4.1206,4.1206,0,0,4.0161,4.0232,4.0284,4.0416,4.0477,4.0566,4.0542,4.0637,4.0704,4.0718,4.0836,4.0883,4.0971,4.1097,4.1155,4.1139,4.1339,4.1286,4.1291,4.1299,4.137,4.1386,4.14,4.1212,4.1211,4.121,0,0,4.0267,4.0329,4.0426,4.0487,4.058,4.0622,4.0645,4.074,4.0773,4.0892,4.0904,4.0983,4.1135,4.1197,4.1248,4.1377,4.1382,4.1403,4.1454,4.1525,4.1538,4.155,4.1597,4.1613,4.1414,4.1414,4.1414,0,4.0297,4.0433,4.0474,4.057,4.0627,4.0644,4.0742,4.0799,4.0915,4.0953,4.0934,4.1124,4.1184,4.1325,4.1357,4.1398,4.1425,4.1393,4.1533,4.1546,4.1557,4.1602,4.162,4.1416,4.1416,4.1416,4.1416,0,4.0464,4.0558,4.0624,4.0737,4.0801,4.0897,4.0952,4.1013,4.1031,4.1075,4.1196,4.1268,4.1369,4.1404,4.1423,4.1548,4.1535,4.1524,4.1488,4.1575,4.1618,4.1635,4.1419,4.1419,4.1418,4.1418,0,0,4.0577,4.0711,4.0734,4.0786,4.0889,4.0962,4.1058,4.1158,4.1209,4.1287,4.1369,4.1497,4.1487,4.1545,4.1571,4.1632,4.173,4.1614,4.1616,4.1633,4.1873,4.1882,4.1901,4.1734,4.1737,4.174,4.1866,0,4.0695,4.0868,4.0908,4.1057,4.1144,4.1161,4.1245,4.1317,4.136,4.1439,4.1486,4.1576,4.1556,4.1592,4.1653,4.1705,4.1779,4.1697,4.181,4.1814,4.1789,4.1923,4.1933,4.2048,4.1883,4.1885,4.1888,0,4.0856,4.094,4.1097,4.1189,4.1227,4.1302,4.1397,4.1473,4.1554,4.1581,4.1646,4.1666,4.1765,4.1724,4.1862,4.1805,4.1853,4.1886,4.1891,4.1904,4.1857,4.1941,4.2086,4.2104,4.1914,4.1912,4.191,0,4.0924,4.1075,4.1189,4.1233,4.1342,4.1395,4.1443,4.1521,4.1579,4.1661,4.1698,4.179,4.1841,4.1912,4.1955,4.1921,4.209,4.2052,4.2115,4.2114,4.2151,4.2148,4.2307,4.218,4.218,4.218,4.2179,0,4.1052,4.1148,4.1221,4.1292,4.1399,4.1443,4.1548,4.1596,4.1666,4.1745,4.1764,4.1838,4.1891,4.1971,4.2005,4.2115,4.2137,4.2161,4.217,4.2161,4.2158,4.2194,4.2187,4.2184,4.2183,4.2182,4.2181,0,4.1146,4.1199,4.1325,4.1419,4.1444,4.152,4.1599,4.1668,4.1711,4.1811,4.1837,4.1904,4.2,4.205,4.217,4.2193,4.2316,4.2319,4.2289,4.2292,4.2353,4.2347,4.2542,4.257,4.2423,4.2424,4.2426,0,4.1225,4.13,4.1402,4.1457,4.1506,4.1594,4.1653,4.1699,4.1759,4.1857,4.1914,4.2011,4.2091,4.2244,4.2303,4.2394,4.24,4.2462,4.2414,4.2402,4.2402,4.2398,4.2405,4.2471,4.2472,4.2473,4.2474,0,4.1361,4.1383,4.1468,4.1562,4.1632,4.1708,4.1783,4.1826,4.1884,4.1951,4.205,4.2112,4.2234,4.233,4.2426,4.2474,4.2484,4.2488,4.2508,4.25,4.248,4.2493,4.2313,4.2484,4.2483,4.2482,4.2482,4.2481,4.145,4.1517,4.16,4.1694,4.1755,4.1824,4.1894,4.1945,4.2029,4.2133,4.2154,4.2259,4.2338,4.2468,4.2519,4.2601,4.2588,4.2616,4.2623,4.263,4.2633,4.2466,4.2618,4.2618,4.2618,4.2617,4.2617,0,4.1587,4.1641,4.1727,4.1832,4.1905,4.1908,4.1991,4.2052,4.2144,4.2218,4.2297,4.241,4.2503,4.2569,4.2664,4.2717,4.2724,4.274,4.2737,4.2748,4.2639,4.2613,4.2733,4.2733,4.2733,4.2733,4.2733,4.2733,4.1667,4.1781,4.1813,4.1957,4.201,4.2114,4.2161,4.2225,4.2284,4.241,4.2488,4.2531,4.2601,4.2701,4.2787,4.2803,4.2838,4.2854,4.2872,4.2768,4.2756,4.2744,4.272,4.2861,4.2861,4.2975,4.2976,4.2976]}]]